Location: C.E.K. Mees Observatory
(42.7003°N, 77.4088°W)
Time: 13:30:28
(UTC-05:00)

Envisat - Pass Details

Date: 26 November 2019
Orbit: 764 x 766 km, 98.1° (Epoch: 12 December)

Event Time Altitude Azimuth Distance (km) Brightness Sun altitude
Rises 17:55:20 0° 160° (SSE) 3,217 6.2 -13.8°
Reaches altitude 10° 17:57:38 10° 159° (SSE) 2,295 5.4 -14.2°
Maximum altitude 18:02:40 75° 75° (ENE) 795 2.9 -15.1°
Drops below altitude 10° 18:07:45 10° 350° (N) 2,310 5.4 -16.0°
Sets 18:10:04 0° 349° (N) 3,240 6.2 -16.4°
